Location: Natural Bridges National Monument
(37.6093°N, 109.9767°W)
Time: 05:08:27
(UTC-06:00)

Daily predictions for brighter satellites

Satellite Brightness Start Highest point End
(mag) Time Altitude Azimuth Time Altitude Azimuth Time Altitude Azimuth
Okean O Rocket 4.4 04:21:05 10° NE 04:23:14 15° E 04:23:14 15° E
Milstar 3 3.7 04:40:59 36° SSE 04:40:59 36° SSE 04:46:13 10° ESE
Cosmos 1943 Rocket 3.3 04:47:34 37° NNE 04:47:34 37° NNE 04:50:51 10° NNE
USA 229 DEB 3.7 04:55:39 67° SSE 04:56:18 73° ESE 05:03:11 10° NE
USA 229 3.7 04:55:43 67° SSE 04:56:24 72° ESE 05:03:16 10° NE
ADEOS II 3.1 04:57:09 10° NNE 05:00:18 37° NNE 05:00:18 37° NNE
OAO 2 Rocket 4.0 05:07:11 49° ESE 05:07:11 49° ESE 05:10:59 10° E
Cosmos 2184 Rocket 3.8 05:05:03 10° N 05:11:20 81° W 05:17:29 10° S
Lacrosse 5 4.0 05:13:36 15° N 05:13:36 15° N 05:15:16 10° NNE
Cosmos 1470 4.4 05:14:28 30° ESE 05:14:28 30° ESE 05:16:53 10° SSE
USA 267 3.2 05:07:10 10° SSE 05:13:28 62° SW 05:13:28 62° SW
MOS 1-B 4.2 05:11:30 10° N 05:16:54 70° NW 05:16:54 70° NW
Cosmos 2150 Rocket 3.9 05:18:53 85° N 05:18:53 85° N 05:24:02 10° NNE
Cosmos 1340 Rocket 4.4 05:22:59 28° NNE 05:22:59 28° NNE 05:25:01 10° NNE
Cosmos 2369 Rocket 3.7 05:25:18 23° NNW 05:25:18 23° NNW 05:27:57 10° N
Cosmos 1898 Rocket 4.5 05:25:33 34° NNW 05:25:33 34° NNW 05:28:44 10° N
Meteor 1-31 Rocket 4.3 05:22:56 10° NNE 05:26:26 34° E 05:29:54 10° SSE
Tiangong 2 3.3 05:27:47 26° ENE 05:27:47 26° ENE 05:29:33 10° E
Cosmos 1937 Rocket 3.6 05:27:32 61° NW 05:27:32 61° NW 05:32:21 10° NNE
Cosmos 1953 Rocket 3.9 05:26:39 26° SSE 05:28:55 61° E 05:33:11 10° NNE
Cosmos 1825 Rocket 3.7 05:31:21 65° N 05:31:21 65° N 05:35:09 10° N
SJ 16-02 3.7 05:30:44 10° SSE 05:34:16 24° E 05:37:49 10° NE
Cosmos 1707 2.8 05:36:31 64° SSE 05:37:00 74° E 05:40:56 10° N
CZ-3 R/B 3.9 05:23:59 32° W 05:37:04 51° SSW 05:46:03 10° SE
Cosmos 44 3.0 05:39:53 59° NW 05:40:43 79° WSW 05:45:33 10° SSE
CZ-4C R/B 2.9 05:36:58 14° NW 05:43:28 81° WSW 05:51:33 10° SSE
Cosmos 1833 4.0 05:43:00 19° NNW 05:47:00 68° WSW 05:52:32 10° S
Meteor 2-5 Rocket 4.2 05:41:16 10° S 05:47:07 65° E 05:52:55 10° NNE
Cosmos 1242 Rocket 3.6 05:49:33 33° S 05:49:33 33° S 05:51:41 10° S
Nadezhda 1 Rocket 4.2 05:45:40 29° SW 05:48:36 48° W 05:54:45 10° N
Cosmos 2219 4.4 05:45:28 10° N 05:50:50 42° ENE 05:56:09 10° SE
Cosmos 990 Rocket 4.3 05:51:00 42° WNW 05:51:10 42° WNW 05:56:05 10° N
CZ-2C R/B 4.1 05:49:58 10° SSE 05:54:42 67° ENE 05:59:24 10° N
Cosmos 1378 3.0 05:54:16 59° SW 05:54:44 67° W 05:58:30 10° N
Shenzhou-11 Module 2.0 05:56:46 79° ESE 05:56:46 79° ESE 05:59:39 10° ESE
Cosmos 44 Rocket 3.3 05:56:14 35° WNW 05:58:00 56° WSW 06:02:49 10° SSE
PAYLOAD B 4.2 05:52:41 10° N 05:58:05 57° WNW 06:03:27 10° SSW
CZ-4B R/B 4.1 05:53:45 10° NNE 05:58:13 89° ESE 06:02:43 10° SSW
Okean O Rocket 1.9 05:56:06 10° N 06:00:14 42° WNW 06:00:42 40° W
USA 116 4.2 05:57:05 10° SSE 06:00:26 56° ENE 06:04:12 10° N
Cosmos 1356 Rocket 3.4 05:57:55 10° S 06:02:11 87° E 06:06:30 10° N
ORS 1 (USA 231) 4.2 06:04:33 78° SW 06:04:42 83° SSE 06:07:37 10° ENE
GPS 2-04 Rocket1 2.9 06:05:03 41° SW 06:05:52 49° SSW 06:09:24 10° ESE
CZ-4B DEB 4.4 06:02:51 10° N 06:08:07 48° WNW 06:13:23 10° SW
Okean-O 3.3 06:07:44 10° NNE 06:12:07 57° E 06:16:28 10° S
Cosmos 1656 Rocket 4.1 06:10:29 21° WSW 06:13:49 42° WNW 06:19:12 10° N
Meteor 1-16 Rocket 4.2 06:09:31 10° N 06:15:12 84° W 06:21:02 10° S
Cosmos 1758 Rocket 4.2 06:13:26 21° SW 06:15:48 35° WNW 06:19:56 10° NNW
Landsat 4 3.6 06:14:01 10° S 06:17:46 61° W 06:21:31 10° NNW
APEX 3.4 06:15:49 18° NW 06:18:30 55° WSW 06:23:08 10° S
Cosmos 2154 Rocket 4.4 06:14:37 10° NNW 06:20:29 41° W 06:26:17 10° SSW
Cosmos 2366 rocket 4.5 06:14:40 10° N 06:20:46 63° E 06:26:52 10° SSE
USA 81 4.0 06:17:32 10° S 06:22:48 79° W 06:28:06 10° N
Cosmos-2242 2.9 06:19:11 10° NNW 06:23:25 62° W 06:27:40 10° S
CZ-4B R/B 3.7 06:20:22 10° N 06:25:20 37° WNW 06:30:22 10° SW
Cosmos 1943 Rocket 3.8 06:29:08 14° WNW 06:29:44 14° NW 06:32:36 10° NNW
Meteor 1-28 Rocket 3.2 06:27:11 10° S 06:30:56 63° W 06:34:44 10° NNW
Cosmos 158 Rocket 4.0 06:25:58 10° NNW 06:31:22 86° WSW 06:36:46 10° SSE
CZ-2C R/B 4.0 06:27:23 10° NNE 06:32:02 39° E 06:36:45 10° SSE
COSMO-SKYMED 1 2.8 06:28:00 10° SSE 06:32:19 72° ENE 06:36:39 10° N
SL-8 Rocket 4.0 06:28:50 10° N 06:35:08 73° W 06:41:25 10° S
BREEZE-M DEB (TANK) 4.2 06:38:02 15° WNW 06:41:13 42° N 06:53:27 10° ENE
ADEOS II 4.0 06:40:31 10° NW 06:41:14 10° WNW 06:41:14 10° WNW
Cosmos 1356 3.4 06:39:25 10° SSW 06:42:51 62° W 06:46:19 10° N
NOSS 3-1 (C) 3.9 06:41:13 10° WSW 06:46:35 40° NW 06:52:35 10° NNE
Intercosmos 24 4.1 06:42:20 10° NNW 06:47:01 53° W 06:50:37 10° S
OAO 2 Rocket 3.7 06:46:10 12° W 06:50:38 54° SSW 06:55:27 10° ESE
Cosmos 1842 Rocket 3.5 06:46:19 10° N 06:50:43 81° W 06:55:01 10° S
Cosmos 1269 Rocket 4.0 06:45:52 10° NNW 06:51:11 81° WSW 06:56:28 10° SSE
NOSS 3-1 (A) 3.6 06:45:54 10° SW 06:51:27 51° NW 06:57:42 10° NNE
Cosmos 864 Rocket 4.4 06:46:01 10° N 06:52:12 76° W 06:58:20 10° S
Cosmos 2221 3.8 06:51:05 10° N 06:55:20 47° E 06:59:34 10° SSE
Meteor 1-24 Rocket 4.0 06:49:38 10° SSW 06:55:29 52° WNW 07:01:19 10° N
IDEFIX/ARIANE 42P 2.6 06:51:05 10° NNE 06:56:22 89° ESE 07:01:34 10° SSW
Thor Agena Rocket 4.3 06:52:14 10° SSE 06:57:25 60° ENE 07:02:35 10° N
Cosmos 2218 Rocket 4.1 06:51:56 10° NNW 06:58:01 57° W 07:04:09 10° S
Meteor 1-31 Rocket 4.5 06:58:30 10° NW 07:00:33 14° WNW 07:02:37 10° W
Tiangong 2 1.4 07:00:19 10° WNW 07:03:29 55° SSW 07:06:37 10° SE
